Home > Weather > Fairfax > Past weeks

Flag for USA Past Weather in Fairfax, Virginia, USA — Yesterday and Last 2 Weeks

Now
75 °F

Passing clouds.


Feels Like: 77 °F
Forecast: 70 / 88 °F
Wind: 5 mph from Northeast

Location: Washington-Dulles International Airport

Current Time: Aug 30, 2016 at 3:27:35 AM

Latest Report: Aug 30, 2016 at 2:52 AM


Visibility: 10 mi

Pressure: 30.11 "Hg

Humidity: 64%

Dew Point: 62 °F

Location of FairfaxLocation

Past Weather in Fairfax — Graph

°F

Fairfax Temperature Yesterday

Maximum temperature yesterday: 93 °F (at 3:52 PM)
Minimum temperature yesterday: 67 °F (at 5:52 AM)
Average temperature yesterday: 80 °F

High & Low Weather Summary for the Past Weeks

 TemperatureHumidityPressure
High95 °F (Aug 16, 3:52 PM)97% (Aug 15, 9:52 PM)30.34 "Hg (Aug 15, 9:52 PM)
Low62 °F (Aug 23, 3:52 AM)35% (Aug 19, 6:52 PM)29.76 "Hg (Aug 21, 1:52 PM)
Average79 °F68%30.08 "Hg
* Reported Aug 15 1:52 AM — Aug 30 1:52 AM, Fairfax, Weather by CustomWeather, © 2016

Note: Actual official high and low records may vary slightly from our data, if they occured in-between our weather recording intervals... More about our weather records

Advertising

Fairfax Weather History for the Previous 24 Hours

Scroll right to see more
 ConditionsComfort  
Time TempWeatherWind HumidityBarometerVisibility
1:52 AM
Tue, Aug 30
77 °FClear.6 mph58%30.11 "Hg10 mi
12:52 AM78 °FPassing clouds.10 mph58%30.11 "Hg10 mi
11:52 PM
Mon, Aug 29
80 °FPassing clouds.12 mph58%30.11 "Hg10 mi
10:52 PM80 °FPassing clouds.5 mph69%30.11 "Hg10 mi
9:52 PM78 °FPassing clouds.No wind69%30.11 "Hg10 mi
8:52 PM82 °FPassing clouds.No wind60%30.10 "Hg10 mi
7:52 PM86 °FPassing clouds.6 mph51%30.08 "Hg10 mi
6:52 PM89 °FPassing clouds.6 mph46%30.07 "Hg10 mi
5:52 PM89 °FPassing clouds.6 mph45%30.07 "Hg10 mi
4:52 PM91 °FScattered clouds.7 mph41%30.08 "Hg10 mi
3:52 PM93 °FScattered clouds.7 mph38%30.09 "Hg10 mi
2:52 PM91 °FScattered clouds.7 mph42%30.12 "Hg10 mi
1:52 PM90 °FPartly sunny.5 mph42%30.14 "Hg10 mi
12:52 PM89 °FSunny.7 mph45%30.15 "Hg10 mi
11:52 AM86 °FPartly sunny.6 mph49%30.17 "Hg10 mi
10:52 AM83 °FPartly sunny.7 mph57%30.17 "Hg10 mi
9:52 AM80 °FPassing clouds.5 mph62%30.17 "Hg10 mi
8:52 AM76 °FPassing clouds.3 mph72%30.18 "Hg10 mi
7:52 AM73 °FPassing clouds.3 mph79%30.18 "Hg10 mi
6:52 AM67 °FPassing clouds.No wind93%30.16 "Hg10 mi
5:52 AM67 °FPassing clouds.No wind93%30.14 "Hg10 mi
4:52 AM70 °FPassing clouds.3 mph87%30.13 "Hg10 mi
3:52 AM71 °FPassing clouds.3 mph84%30.12 "Hg10 mi
Weather by CustomWeather, © 2016

See weather overviewHow to use our weather pages